{"data":{"norad_id":66041,"intl_designator":"2025-233J","name":"QIANFAN-99","alt_names":[],"object_type":"PAYLOAD","status":"ACTIVE","operator":null,"country":"PRC","launch_date":"2025-10-17","launch_site_code":"TAISC","launch_vehicle":null,"mission":null,"orbit_class":"UNKNOWN","rcs_meters":null,"size_class":null,"mass_kg":null,"dimensions":null,"purposes":[],"wikipedia_slug":null,"has_3d_model":false,"image_url":null,"decayed_at":null,"tle_current":{"epoch":"2026-05-25T03:10:55.910784Z","epoch_age_seconds":73657,"freshness":"FRESH","line1":"1 66041U 25233J   26145.13259156  .00000134  00000+0  18925-3 0  9997","line2":"2 66041  89.0026  45.5194 0001871  78.4502 281.6859 13.51006316 30070","mean_motion":13.51006316,"eccentricity":0.0001871,"inclination_deg":89.0026,"raan_deg":45.5194,"arg_perigee_deg":78.4502,"mean_anomaly_deg":281.6859,"bstar":0.00018925,"rev_number":3007,"period_min":106.58721450418,"perigee_km":1067.1650994155,"apogee_km":1069.9516528253,"semimajor_km":7446.6953761204,"source":"CELESTRAK","updated_at":"2026-05-25T13:38:05.921247Z"}}}